Flag for Germany Weather past 2 weeks in Ingolstadt, Bavaria, Germany

Now
68 °F

Mild.


Feels Like: 68 °F
Forecast: 54 / 65 °F
Wind: 5 mph from Southwest

Location: Ingolstadt Airport

Current Time: Jul 8, 2015 at 4:22:13 AM

Latest Report: Jul 8, 2015 at 3:20 AM


Visibility: 3 mi

Pressure: 29.89 "Hg

Humidity: 94%

Dew point: 66 °F

Location of IngolstadtLocation

Historic Weather in Ingolstadt — Graph

°F

Ingolstadt temperature yesterday

Maximum temperature yesterday: 97 °F (at 4:20 PM)
Minimum temperature yesterday: 63 °F (at 5:20 AM)
Average temperature yesterday: 80 °F

Past Weeks' High & Low Weather Summary

 TemperatureHumidityPressure
High97 °F (Jul 5, 5:20 PM)100% (Jun 25, 2:20 AM)30.30 "Hg (Jun 25, 2:20 AM)
Low45 °F (Jun 25, 4:20 AM)28% (Jul 5, 2:20 PM)29.74 "Hg (Jul 7, 9:20 PM)
Average70 °F65%30.12 "Hg
* Reported Jun 23 2:20 AM — Jul 8 2:20 AM, Ingolstadt, Weather by CustomWeather, © 2015

Note: Actual official high and low records may vary slightly from our data, if they occured in-between our weather recording intervals... More about our weather records

Advertising

Ingolstadt weather history for previous 24 hours

 ConditionsComfort  
Time TempWeatherWind HumidityBarometerVisibility
2:20 AM
Wed, Jul 8
68 °FMild.3 mph88%29.86 "Hg3 mi
1:20 AM66 °FMild.7 mph94%29.83 "Hg4 mi
12:20 AM66 °FMild.3 mph94%29.80 "Hg4 mi
11:20 PM
Tue, Jul 7
73 °FMild.5 mph78%29.77 "Hg1 mi
10:20 PM81 °FWarm.1 mph58%29.74 "Hg4 mi
9:20 PM84 °FScattered clouds.2 mph51%29.74 "HgN/A
8:20 PM90 °FScattered clouds.2 mph41%29.77 "HgN/A
7:20 PM93 °FExtremely hot.7 mph36%29.80 "HgN/A
6:20 PM95 °FExtremely hot.10 mph32%29.83 "HgN/A
5:20 PM95 °FPassing clouds.16 mph30%29.83 "HgN/A
4:20 PM97 °FPassing clouds.14 mph28%29.86 "HgN/A
3:20 PM95 °FPassing clouds.12 mph32%29.89 "HgN/A
2:20 PM93 °FPassing clouds.6 mph34%29.89 "HgN/A
1:20 PM91 °FPassing clouds.5 mph41%29.92 "HgN/A
12:20 PM90 °FPassing clouds.6 mph43%29.95 "HgN/A
11:20 AM86 °FPassing clouds.3 mph52%29.98 "HgN/A
10:20 AM81 °FPassing clouds.3 mph62%29.98 "HgN/A
9:20 AM77 °FScattered clouds.3 mph65%30.01 "HgN/A
8:20 AM72 °FMild.5 mph69%30.01 "HgN/A
7:20 AM66 °FMild.3 mph83%30.04 "HgN/A
6:20 AM64 °FMild.5 mph83%30.04 "HgN/A
5:20 AM63 °FMild.1 mph94%30.04 "HgN/A
4:20 AM64 °FMild.2 mph88%30.04 "Hg4 mi
Weather by CustomWeather, © 2015

See weather overviewHow to use our weather pages